Terminal Aerodrome Forecast
Issued by NWS Cleveland, OH

Home | Current Version | Previous Version | Text Only | Print | Product List | Glossary Off
Versions: 1 2 3 4 5 6 7 8 9 10 11 12 13 14 15 16

000
FTUS41 KCLE 251720
TAFMFD
TAF
KMFD 251720Z 2518/2618 21010G15KT P6SM OVC070
     FM260000 18007KT P6SM OVC250
     FM260700 20007KT P6SM OVC100
     FM261000 20007KT 6SM BR VCTS SCT025CB OVC035
     FM261100 19007KT 4SM -TSRA BR OVC025CB
     FM261200 20008KT P6SM OVC035
     FM261600 20009KT P6SM BKN250=

USA.gov is the U.S. government's official web portal to all federal, state and local government web resources and services.